This is the latest recevied weather packets stored in our database for station/object DG7YEO-13. If no packets are shown the sender has not sent any weather packets the latest 10 day(s).
| Time | Temp. | Humidity | Pressure | Rain* | Wind** | Luminosity | Snow |
|---|---|---|---|---|---|---|---|
| 1787866325 | 25.56° C | 72% | 1008 hPa | 0 mm | - | - | - |
| 1787865425 | 25.56° C | 70% | 1007.8 hPa | 0 mm | - | - | - |
| 1787864525 | 25.56° C | 69% | 1007.7 hPa | 0 mm | - | - | - |
| 1787863625 | 25.56° C | 69% | 1008 hPa | 0 mm | - | - | - |
| 1787862725 | 25.56° C | 68% | 1008 hPa | 0 mm | - | - | - |
| 1787861825 | 26.11° C | 67% | 1008 hPa | 0 mm | - | - | - |
| 1787860925 | 26.11° C | 66% | 1008.1 hPa | 0 mm | - | - | - |
| 1787860025 | 26.67° C | 65% | 1008.4 hPa | 0 mm | - | - | - |
| 1787859125 | 26.67° C | 64% | 1008.4 hPa | 0 mm | - | - | - |
| 1787858225 | 27.22° C | 63% | 1008.7 hPa | 0 mm | - | - | - |
| 1787857325 | 27.78° C | 61% | 1008.6 hPa | 0 mm | - | - | - |
| 1787856425 | 27.78° C | 60% | 1008.6 hPa | 0 mm | - | - | - |
| 1787855525 | 28.33° C | 59% | 1008.7 hPa | 0 mm | - | - | - |
| 1787854625 | 28.33° C | 58% | 1008.8 hPa | 0 mm | - | - | - |
| 1787853724 | 28.89° C | 56% | 1008.9 hPa | 0 mm | - | - | - |
| 1787852825 | 29.44° C | 54% | 1008.8 hPa | 0 mm | - | - | - |
| 1787851925 | 29.44° C | 53% | 1008.7 hPa | 0 mm | - | - | - |
| 1787851025 | 29.44° C | 53% | 1008.7 hPa | 0 mm | - | - | - |
| 1787850125 | 29.44° C | 52% | 1008.9 hPa | 0 mm | - | - | - |
| 1787849225 | 29.44° C | 55% | 1008.9 hPa | 0 mm | - | - | - |
| 1787848325 | 30° C | 54% | 1009 hPa | 0 mm | - | - | - |
| 1787847425 | 30.56° C | 53% | 1009.1 hPa | 0 mm | - | - | - |
| 1787846526 | 30.56° C | 51% | 1009.3 hPa | 0 mm | - | - | - |
| 1787845625 | 31.11° C | 48% | 1009.2 hPa | 0 mm | - | - | - |
| 1787844725 | 31.11° C | 49% | 1009.3 hPa | 0 mm | - | - | - |
* Rain latest hour (hover to see other rain measurements)
** Current wind speed in m/s (hover to see current wind gust speed)